Location: Eurasberg
(48.3353°N, 11.0839°E)
Time: 13:28:42
(UTC+00:00)

Timation 1 Rocket - Pass Details

Date: 27 April 2026
Orbit: 895 x 908 km, 70.0° (Epoch: 14 May)

Event Time Altitude Azimuth Distance (km) Brightness Sun altitude
Exits shadow 20:29:41 11° 84° (E) 2,548 6.4 -17.8°
Drops below altitude 10° 20:30:14 10° 79° (E) 2,596 6.4 -17.9°
Sets 20:34:51 0° 47° (NE) 3,546 7.5 -18.4°
